DateTimeUTC,F1_A11,F1_S11,BsB_S11,BsG_S11,BsR_S11,BbsB_S11,BbsG_S11,BbsR_S11,BaB_A11,BaG_A11,BaR_A11,Tu_S11,T_S11,Uu_S11,U_S11,P_S11,T1_A11
2021-06-06T19:00:00Z,00000200,20000000,,,,,,,-000.25,-000.13,-000.08,19.5,26.1,09.1,06.1,0672.9,31.1
2021-06-06T19:01:00Z,00000200,20000000,,,,,,,0000.18,-000.04,0000.11,19.5,26.1,09.1,06.1,0672.9,31.1
2021-06-06T19:02:00Z,00000200,20000000,,,,,,,-000.63,-000.51,-000.29,19.5,26.1,08.9,05.9,0672.9,31.1
2021-06-06T19:03:00Z,00000200,60000000,,,,,,,0000.48,0000.48,0000.06,19.5,26.1,08.8,05.9,0672.9,31.1
2021-06-06T19:04:00Z,00000200,40000000,0000.94,0000.48,0000.38,0000.37,0000.26,0000.51,0000.20,0000.19,0000.47,19.6,25.9,08.8,06.0,0673.8,31.1
2021-06-06T19:05:00Z,00000200,00000000,-000.28,0000.16,0000.15,0000.01,0000.24,0000.34,0000.47,0000.37,0000.20,19.7,25.9,08.7,06.0,0673.9,31.1
2021-06-06T19:06:00Z,00000200,00000000,0000.46,0000.14,-000.16,0000.31,0000.03,0000.41,0000.24,-000.10,-000.05,19.7,25.9,08.8,06.0,0673.9,31.1
2021-06-06T19:07:00Z,00000200,00000000,0000.80,0000.30,0000.11,0000.81,0000.41,0000.21,0000.17,0000.45,0000.24,19.7,25.8,08.8,06.0,0673.9,31.1
2021-06-06T19:08:00Z,00000200,00000000,0000.23,0000.35,-000.01,0000.01,-000.13,0000.26,0000.02,-000.10,-000.03,19.7,25.8,08.8,06.1,0673.9,31.1
2021-06-06T19:09:00Z,00000200,00000000,-000.07,0000.17,0000.46,0000.32,0000.30,0000.55,0000.00,0000.38,0000.03,19.7,25.8,08.8,06.0,0673.9,31.1
2021-06-06T19:10:00Z,00000200,00000000,-000.20,0000.20,0000.38,0000.16,0000.09,0000.28,0000.38,0000.23,0000.34,19.6,25.8,08.7,06.0,0673.9,31.1
2021-06-06T19:11:00Z,00000200,00000000,0000.58,0000.42,0000.10,-000.01,-000.01,0000.23,0000.02,-000.04,0000.05,19.7,25.8,08.7,06.0,0673.9,31.2
2021-06-06T19:12:00Z,00000200,00000000,0000.26,0000.37,0000.03,0000.42,0000.10,0000.14,0000.13,-000.12,-000.08,19.6,25.8,08.5,05.9,0673.9,31.1
2021-06-06T19:13:00Z,00000200,00000000,-000.25,0000.35,0000.23,0000.43,0000.04,0000.18,0000.18,0000.31,0000.23,19.6,25.8,08.6,05.9,0673.9,31.1
2021-06-06T19:14:00Z,00000200,00000000,0000.27,0000.12,0000.59,0000.38,0000.04,0000.38,0000.23,-000.00,0000.14,19.6,25.8,08.6,05.9,0673.9,31.1
2021-06-06T19:15:00Z,00000200,00000000,0000.15,0000.42,-000.15,0000.01,-000.13,0000.01,0000.14,0000.21,0000.11,19.6,25.8,08.5,05.8,0673.9,31.1
2021-06-06T19:16:00Z,00000200,00000000,0000.42,0000.34,0000.18,0000.23,0000.13,0000.28,0000.34,0000.23,-000.05,19.6,25.8,08.6,05.9,0673.9,31.1
2021-06-06T19:17:00Z,00000200,00000000,0000.81,0000.32,0000.26,0000.15,-000.14,0000.59,0000.14,0000.37,0000.13,19.6,25.8,08.5,05.8,0673.9,31.1
2021-06-06T19:18:00Z,00000200,00000000,0000.46,0000.09,0000.01,0000.30,0000.28,0000.16,0000.06,-000.12,0000.15,19.6,25.8,08.4,05.8,0673.9,31.1
2021-06-06T19:19:00Z,00000200,00000000,0000.24,0000.02,-000.03,0000.71,-000.07,0000.25,0000.19,0000.44,0000.28,19.6,25.8,08.5,05.9,0673.9,31.1
2021-06-06T19:20:00Z,00000200,00000000,0000.50,0000.32,0000.30,0000.85,0000.24,0000.35,0000.35,0000.02,0000.22,19.6,25.7,08.5,05.8,0673.9,31.1
2021-06-06T19:21:00Z,00000200,00000000,0000.68,0000.54,-000.03,0000.43,0000.14,0000.30,0000.20,0000.31,-000.04,19.6,25.7,08.5,05.9,0673.9,31.1
2021-06-06T19:22:00Z,00000200,00000000,0000.36,0000.08,0000.59,0000.19,0000.07,0000.27,0000.39,0000.39,0000.52,19.6,25.8,08.5,05.8,0673.9,31.1
2021-06-06T19:23:00Z,00000200,00000000,0000.05,0000.49,0000.30,0000.58,0000.05,0000.21,-000.05,-000.17,-000.16,19.6,25.7,08.5,05.8,0673.9,31.2
2021-06-06T19:24:00Z,00000200,00000000,-000.61,0000.44,0000.18,0000.14,0000.15,0000.21,0000.29,0000.31,0000.28,19.6,25.7,08.6,05.9,0673.9,31.1
2021-06-06T19:25:00Z,00000200,00000000,0000.22,0000.28,0000.26,0000.08,0000.24,0000.53,0000.22,0000.25,-000.09,19.6,25.7,08.6,05.9,0673.9,31.1
2021-06-06T19:26:00Z,00000200,00000000,0000.21,0000.39,0000.22,0000.32,0000.08,0000.28,0000.33,0000.33,-000.11,19.6,25.7,08.5,05.9,0673.9,31.1
2021-06-06T19:27:00Z,00000200,00000000,0000.33,0000.21,-000.09,0000.79,0000.18,0000.20,0000.39,-000.03,0000.57,19.6,25.7,08.6,05.9,0673.9,31.1
2021-06-06T19:28:00Z,00000200,00000000,0000.50,0000.25,0000.25,0000.43,0000.12,0000.12,0000.01,0000.10,-000.05,19.6,25.7,08.6,05.9,0673.9,31.1
2021-06-06T19:29:00Z,00000200,00000000,0000.32,0000.41,0000.35,-000.16,0000.39,0000.42,0000.57,0000.55,0000.61,19.6,25.7,08.6,05.9,0673.9,31.1
2021-06-06T19:30:00Z,00000200,00000000,0000.33,0000.31,0000.30,0000.47,0000.01,0000.33,-000.09,0000.11,0000.03,19.6,25.7,08.7,06.0,0673.9,31.1
2021-06-06T19:31:00Z,00000200,00000000,0000.70,0000.88,0000.46,0000.81,-000.01,0000.24,0000.58,0000.37,0000.12,19.6,25.7,08.8,06.1,0673.9,31.1
2021-06-06T19:32:00Z,00000200,00000000,0001.20,0000.58,0000.56,-000.16,0000.31,0000.26,0000.36,0000.66,0000.46,19.6,25.7,08.9,06.1,0673.9,31.1
2021-06-06T19:33:00Z,00000200,00000000,0000.61,0000.71,0000.42,0000.72,0000.33,0000.24,0000.50,-000.16,0000.16,19.6,25.7,08.9,06.2,0673.9,31.1
2021-06-06T19:34:00Z,00000200,00000000,0001.26,0000.92,0000.35,0000.72,0000.16,0000.28,0000.44,0000.55,0000.17,19.6,25.7,09.0,06.2,0673.9,31.1
2021-06-06T19:35:00Z,00000200,00000000,0000.80,0000.90,-000.02,0000.36,0000.16,0000.15,0000.08,0000.16,0000.49,19.6,25.7,09.0,06.2,0673.9,31.1
2021-06-06T19:36:00Z,00000200,00000000,0000.94,0000.87,0000.52,0000.70,0000.32,0000.40,0000.04,0000.38,0000.16,19.6,25.7,09.2,06.3,0673.9,31.1
2021-06-06T19:37:00Z,00000200,00000000,0001.56,0001.02,-000.02,0000.60,0000.20,0000.37,0001.01,0000.37,0000.23,19.6,25.7,09.3,06.4,0673.9,31.1
2021-06-06T19:38:00Z,00000200,00000000,0001.66,0000.86,0000.57,0000.99,0000.21,0000.22,0000.31,0000.36,0000.41,19.6,25.7,09.3,06.4,0673.8,31.1
2021-06-06T19:39:00Z,00000200,00000000,0001.61,0000.78,0000.36,0000.53,0000.22,0000.30,0000.15,0000.66,0000.33,19.6,25.7,09.4,06.5,0673.8,31.1
2021-06-06T19:40:00Z,00000200,00000000,0001.10,0000.87,0000.32,0000.47,0000.19,0000.49,-000.04,0000.02,0000.33,19.6,25.7,09.2,06.3,0673.8,31.1
2021-06-06T19:41:00Z,00000200,00000000,0001.54,0000.68,0000.64,-000.11,0000.43,0000.36,0000.56,0000.19,0000.19,19.6,25.7,09.3,06.4,0673.9,31.1
2021-06-06T19:42:00Z,00000200,00000000,0001.91,0001.16,0000.46,0001.06,0000.34,0000.23,0000.36,0000.47,0000.16,19.6,25.7,09.3,06.4,0673.9,31.1
2021-06-06T19:43:00Z,00000200,00000000,0001.81,0001.14,0000.68,0000.20,0000.20,0000.25,0000.10,0000.50,0000.12,19.6,25.7,09.3,06.4,0673.9,31.1
2021-06-06T19:44:00Z,00000200,00000000,0002.19,0001.21,0000.84,0000.30,0000.28,0000.58,0000.52,-000.04,0000.21,19.6,25.7,09.2,06.4,0673.9,31.1
2021-06-06T19:45:00Z,00000200,00000000,0000.69,0001.04,0000.42,0000.54,0000.13,0000.46,0000.25,0000.14,0000.09,19.6,25.6,09.1,06.3,0673.9,31.1
2021-06-06T19:46:00Z,00000200,00000000,0002.28,0001.34,0000.53,0000.16,0000.39,0000.28,0000.53,0000.77,0000.45,19.6,25.6,09.3,06.4,0673.9,31.1
2021-06-06T19:47:00Z,00000200,00000000,0001.47,0001.08,0000.80,0000.28,0000.37,0000.28,0000.08,-000.26,0000.35,19.6,25.7,09.3,06.4,0673.9,31.1
2021-06-06T19:48:00Z,00000200,00000000,0001.75,0000.97,0000.52,0000.66,0000.29,0000.36,0000.30,0000.38,0000.26,19.6,25.6,09.2,06.4,0673.9,31.1
2021-06-06T19:49:00Z,00000200,00000000,0000.90,0001.04,0000.80,0000.61,0000.14,0000.70,0000.22,0000.22,0000.26,19.6,25.6,09.2,06.3,0673.9,31.1
2021-06-06T19:50:00Z,00000200,00000000,0001.60,0000.98,0000.47,0000.67,0000.47,0000.17,0000.36,0000.56,0000.22,19.6,25.6,09.1,06.3,0673.9,31.1
2021-06-06T19:51:00Z,00000200,00000000,0001.61,0001.00,0000.52,0000.59,0000.11,0000.81,0000.78,0000.32,0000.18,19.6,25.6,09.2,06.4,0673.9,31.1
2021-06-06T19:52:00Z,00000200,00000000,0001.30,0001.09,0000.40,0000.52,0000.16,0000.40,0000.03,0000.57,0000.47,19.6,25.6,09.4,06.5,0673.9,31.1
2021-06-06T19:53:00Z,00000200,00000000,0001.53,0000.99,0000.37,0000.05,0000.31,0000.21,0000.53,0000.03,0000.10,19.6,25.6,09.3,06.4,0673.9,31.1
2021-06-06T19:54:00Z,00000200,00000000,0001.35,0001.61,0000.72,0000.80,0000.53,0000.11,0000.32,0000.34,0000.57,19.6,25.6,09.3,06.4,0673.9,31.1
2021-06-06T19:55:00Z,00000200,00000000,0002.16,0000.98,0000.49,0000.36,0000.08,0000.14,-000.13,-000.10,-000.21,19.6,25.6,09.2,06.4,0673.9,31.1
2021-06-06T19:56:00Z,00000200,00000000,0001.61,0001.04,0000.66,0000.65,0000.14,0000.50,0000.38,0000.69,0000.22,19.6,25.6,09.2,06.3,0673.9,31.1
2021-06-06T19:57:00Z,00000200,40000000,,,,,,,0000.06,0000.23,0000.11,19.6,25.6,09.1,06.3,0673.8,31.1
2021-06-06T19:58:00Z,00000200,60000000,,,,,,,0000.01,-000.14,-000.02,19.4,25.8,09.0,06.1,0672.9,31.1
2021-06-06T19:59:00Z,00000200,20000000,,,,,,,0000.15,-000.12,-000.09,19.4,25.9,09.1,06.1,0672.9,31.1
